• In Uzbekistan
  • List of Countries
  • For 7 days
  • Water Temperature
  • Weather Map
  • Weather Widgets
  • user-avatar
    Login

    Hourly Weather Nevinnomyssk

    Today, 24 October, Thursday

    Time Temperature Precipitation Wind Pressure Humidity
    00:00 +10°C° 0 mm 1 mps 710 mmHg 73%
    01:00 +9°C° 0 mm 2 mps 710 mmHg 72%
    02:00 +9°C° 0 mm 2 mps 710 mmHg 71%
    03:00 +9°C° 0 mm 2 mps 710 mmHg 70%
    04:00 +9°C° 0 mm 2 mps 710 mmHg 68%
    05:00 +9°C° 0 mm 2 mps 710 mmHg 67%
    06:00 +8°C° 0 mm 2 mps 710 mmHg 65%
    07:00 +11°C° 0 mm 1 mps 711 mmHg 59%
    08:00 +13°C° 0 mm 1 mps 711 mmHg 53%
    09:00 +14°C° 0 mm 1 mps 711 mmHg 47%
    10:00 +16°C° 0 mm 1 mps 711 mmHg 42%
    11:00 +19°C° 0 mm 1 mps 711 mmHg 36%
    12:00 +20°C° 0 mm 2 mps 711 mmHg 30%
    13:00 +20°C° 0 mm 2 mps 711 mmHg 31%
    14:00 +20°C° 0 mm 3 mps 711 mmHg 31%
    15:00 +20°C° 0 mm 3 mps 711 mmHg 32%
    16:00 +18°C° 0 mm 3 mps 710 mmHg 40%
    17:00 +16°C° 0 mm 2 mps 710 mmHg 48%
    18:00 +13°C° 0 mm 2 mps 710 mmHg 56%
    19:00 +13°C° 0 mm 2 mps 710 mmHg 58%
    20:00 +12°C° 0 mm 2 mps 710 mmHg 59%
    21:00 +12°C° 0 mm 1 mps 710 mmHg 61%
    22:00 +12°C° 0 mm 1 mps 710 mmHg 61%
    23:00 +11°C° 0 mm 1 mps 709 mmHg 60%

    Tomorrow, 25 October, Friday

    Time Temperature Precipitation Wind Pressure Humidity
    00:00 +11°C° 0 mm 1 mps 709 mmHg 60%
    01:00 +11°C° 0 mm 1 mps 709 mmHg 59%
    02:00 +11°C° 0 mm 1 mps 709 mmHg 59%
    03:00 +11°C° 0 mm 1 mps 709 mmHg 58%
    04:00 +11°C° 0 mm 1 mps 709 mmHg 57%
    05:00 +11°C° 0 mm 1 mps 709 mmHg 57%
    06:00 +10°C° 0 mm 1 mps 708 mmHg 57%
    07:00 +12°C° 0 mm 1 mps 709 mmHg 52%
    08:00 +14°C° 0 mm 1 mps 709 mmHg 48%
    09:00 +15°C° 0 mm 1 mps 709 mmHg 44%
    10:00 +18°C° 0 mm 1 mps 710 mmHg 40%
    11:00 +19°C° 0 mm 1 mps 710 mmHg 37%
    12:00 +20°C° 0 mm 2 mps 710 mmHg 34%
    13:00 +20°C° 0 mm 2 mps 709 mmHg 34%
    14:00 +20°C° 0 mm 2 mps 709 mmHg 33%
    15:00 +20°C° 0 mm 2 mps 709 mmHg 33%
    16:00 +18°C° 0 mm 2 mps 709 mmHg 41%
    17:00 +16°C° 0 mm 2 mps 709 mmHg 48%
    18:00 +14°C° 0 mm 2 mps 709 mmHg 55%
    19:00 +13°C° 0 mm 2 mps 709 mmHg 57%
    20:00 +12°C° 0 mm 2 mps 709 mmHg 60%
    21:00 +12°C° 0 mm 1 mps 708 mmHg 62%
    22:00 +11°C° 0 mm 1 mps 708 mmHg 63%
    23:00 +11°C° 0 mm 1 mps 708 mmHg 64%

    Day after tomorrow, 26 October, Saturday

    Time Temperature Precipitation Wind Pressure Humidity
    00:00 +11°C° 0 mm 1 mps 708 mmHg 65%
    01:00 +10°C° 0 mm 1 mps 708 mmHg 65%
    02:00 +10°C° 0 mm 1 mps 708 mmHg 65%
    03:00 +10°C° 0 mm 1 mps 708 mmHg 65%
    04:00 +10°C° 0 mm 1 mps 708 mmHg 66%
    05:00 +10°C° 0 mm 1 mps 709 mmHg 66%
    06:00 +9°C° 0 mm 1 mps 709 mmHg 66%
    07:00 +11°C° 0 mm 1 mps 709 mmHg 60%
    08:00 +13°C° 0 mm 1 mps 709 mmHg 54%
    09:00 +15°C° 0 mm 1 mps 710 mmHg 48%
    10:00 +16°C° 0 mm 1 mps 710 mmHg 45%
    11:00 +19°C° 0 mm 1 mps 710 mmHg 42%
    12:00 +19°C° 0 mm 2 mps 711 mmHg 38%
    13:00 +19°C° 0 mm 2 mps 710 mmHg 38%
    14:00 +19°C° 0 mm 2 mps 710 mmHg 38%
    15:00 +20°C° 0 mm 2 mps 710 mmHg 38%
    16:00 +17°C° 0 mm 2 mps 710 mmHg 46%
    17:00 +15°C° 0 mm 1 mps 710 mmHg 54%
    18:00 +13°C° 0 mm 1 mps 710 mmHg 62%
    19:00 +12°C° 0 mm 1 mps 710 mmHg 65%
    20:00 +12°C° 0 mm 1 mps 710 mmHg 68%
    21:00 +11°C° 0 mm 1 mps 710 mmHg 71%
    22:00 +11°C° 0 mm 1 mps 710 mmHg 71%
    23:00 +11°C° 0 mm 1 mps 710 mmHg 71%

    27 October, Sunday

    Time Temperature Precipitation Wind Pressure Humidity
    00:00 +10°C° 0 mm 1 mps 710 mmHg 71%
    01:00 +10°C° 0 mm 1 mps 710 mmHg 72%
    02:00 +10°C° 0 mm 1 mps 710 mmHg 72%
    03:00 +10°C° 0 mm 1 mps 710 mmHg 73%
    04:00 +9°C° 0 mm 1 mps 710 mmHg 73%
    05:00 +9°C° 0 mm 1 mps 710 mmHg 73%
    06:00 +9°C° 0 mm 1 mps 710 mmHg 73%
    07:00 +11°C° 0 mm 1 mps 710 mmHg 67%
    08:00 +13°C° 0 mm 1 mps 711 mmHg 60%
    09:00 +15°C° 0 mm 1 mps 711 mmHg 53%
    10:00 +16°C° 0 mm 1 mps 711 mmHg 48%
    11:00 +19°C° 0 mm 1 mps 711 mmHg 44%
    12:00 +19°C° 0 mm 2 mps 712 mmHg 40%
    13:00 +20°C° 0 mm 2 mps 711 mmHg 39%
    14:00 +20°C° 0 mm 2 mps 711 mmHg 38%
    15:00 +20°C° 0 mm 3 mps 711 mmHg 37%
    16:00 +18°C° 0 mm 2 mps 711 mmHg 45%
    17:00 +15°C° 0 mm 2 mps 710 mmHg 53%
    18:00 +13°C° 0 mm 1 mps 710 mmHg 61%
    19:00 +13°C° 0 mm 1 mps 710 mmHg 63%
    20:00 +12°C° 0 mm 1 mps 710 mmHg 65%
    21:00 +12°C° 0 mm 1 mps 710 mmHg 67%
    22:00 +11°C° 0 mm 1 mps 710 mmHg 68%
    23:00 +11°C° 0 mm 1 mps 710 mmHg 69%

    28 October, Monday

    Time Temperature Precipitation Wind Pressure Humidity
    00:00 +11°C° 0 mm 1 mps 710 mmHg 70%
    01:00 +10°C° 0 mm 1 mps 710 mmHg 71%
    02:00 +10°C° 0 mm 1 mps 710 mmHg 72%
    03:00 +10°C° 0 mm 1 mps 710 mmHg 72%
    04:00 +10°C° 0 mm 1 mps 709 mmHg 72%
    05:00 +10°C° 0 mm 1 mps 709 mmHg 72%
    06:00 +10°C° 0 mm 1 mps 709 mmHg 72%
    07:00 +11°C° 0 mm 1 mps 710 mmHg 65%
    08:00 +13°C° 0 mm 1 mps 710 mmHg 58%
    09:00 +15°C° 0 mm 1 mps 710 mmHg 51%
    10:00 +18°C° 0 mm 1 mps 710 mmHg 46%
    11:00 +19°C° 0 mm 1 mps 710 mmHg 42%
    12:00 +21°C° 0 mm 1 mps 710 mmHg 37%
    13:00 +21°C° 0 mm 1 mps 710 mmHg 37%
    14:00 +21°C° 0 mm 2 mps 709 mmHg 36%
    15:00 +21°C° 0 mm 2 mps 709 mmHg 35%
    16:00 +19°C° 0 mm 1 mps 709 mmHg 43%
    17:00 +16°C° 0 mm 1 mps 708 mmHg 51%
    18:00 +14°C° 0 mm 1 mps 708 mmHg 59%
    19:00 +13°C° 0 mm 1 mps 708 mmHg 61%
    20:00 +13°C° 0 mm 1 mps 708 mmHg 62%
    21:00 +12°C° 0 mm 1 mps 708 mmHg 64%
    22:00 +12°C° 0 mm 1 mps 708 mmHg 63%
    23:00 +12°C° 0 mm 1 mps 707 mmHg 63%

    29 October, Tuesday

    Time Temperature Precipitation Wind Pressure Humidity
    00:00 +11°C° 0 mm 1 mps 707 mmHg 62%
    01:00 +10°C° 0 mm 2 mps 707 mmHg 60%
    02:00 +10°C° 0 mm 2 mps 707 mmHg 57%
    03:00 +10°C° 0 mm 2 mps 707 mmHg 54%
    04:00 +10°C° 0 mm 2 mps 707 mmHg 52%
    05:00 +10°C° 0 mm 2 mps 707 mmHg 49%
    06:00 +10°C° 0 mm 2 mps 707 mmHg 47%
    07:00 +13°C° 0 mm 2 mps 707 mmHg 42%
    08:00 +14°C° 0 mm 2 mps 707 mmHg 37%
    09:00 +16°C° 0 mm 2 mps 707 mmHg 33%
    10:00 +18°C° 0 mm 2 mps 708 mmHg 30%
    11:00 +21°C° 0 mm 2 mps 708 mmHg 28%
    12:00 +24°C° 0 mm 2 mps 708 mmHg 25%
    13:00 +24°C° 0 mm 2 mps 708 mmHg 25%
    14:00 +24°C° 0 mm 3 mps 707 mmHg 25%
    15:00 +24°C° 0 mm 3 mps 707 mmHg 26%
    16:00 +21°C° 0 mm 3 mps 707 mmHg 31%
    17:00 +18°C° 0 mm 2 mps 706 mmHg 36%
    18:00 +16°C° 0 mm 2 mps 706 mmHg 42%
    19:00 +15°C° 0 mm 2 mps 706 mmHg 43%
    20:00 +15°C° 0 mm 2 mps 706 mmHg 44%
    21:00 +14°C° 0 mm 2 mps 706 mmHg 45%
    22:00 +14°C° 0 mm 2 mps 706 mmHg 46%
    23:00 +13°C° 0 mm 2 mps 706 mmHg 46%
    Show more